Pope Army Airfield, NC

6:35 PM EST on February 05, 2016 (GMT -0500)
Simmons Army Air Field

Weather History for KFBG - November, 2013

Change the Weather History Date:

Tuesday, November 5, 2013

  Actual Average Record
Temperature  
Mean Temperature 48 °F -  
Max Temperature 59 °F 65 °F 84 °F (2003)
Min Temperature 38 °F 44 °F 33 °F (2006)
Degree Days  
Heating Degree Days 16    
Moisture  
Dew Point 46 °F    
Average Humidity 79    
Maximum Humidity 97    
Minimum Humidity 67    
Precipitation  
Precipitation 0.00 in - - ()
Sea Level Pressure  
Sea Level Pressure 30.48 in    
Wind  
Wind Speed 6 mph (NNE)    
Max Wind Speed 10 mph    
Max Gust Speed -    
Visibility 10 miles    
Events      
Averages and records for this station are not official NWS values.
T = Trace of Precipitation, MM = Missing Value Source: NWS Daily Summary

Daily Weather History Graph

Daily Weather History Graph

Search for Another Location

Airport or City:

Trip Planner

Search our weather history database for the weather conditions in past years. The results will help you decide how hot, cold, wet, or windy it might be!

Date:

Astronomy

Nov. 05, 2013 Rise Set
Actual Time 6:40 AM EST 5:17 PM EST
Civil Twilight 6:14 AM EST 5:43 PM EST
Nautical Twilight 5:44 AM EST 6:13 PM EST
Astronomical Twilight 5:14 AM EST 6:43 PM EST
Moon 8:50 AM EST 7:20 PM EST
Length of Visible Light 11h 29m
Length of Day
10h 36m
Waxing Crescent, 6% of the Moon is Illuminated
Nov 5
Waxing Crescent
Nov 10
First Quarter
Nov 17
Full
Nov 25
Last Quarter
Dec 2
New

Hourly Weather History & Observations

Time (EST) Temp. Windchill Dew Point Humidity Pressure Visibility Wind Dir Wind Speed Gust Speed Precip Events Conditions
12:58 AM 41.4 °F 37.6 °F 37.0 °F 85% 30.50 in 10.0 mi NNE 5.8 mph - N/A   Clear
1:58 AM 39.2 °F 35.9 °F 36.9 °F 91% 30.50 in 10.0 mi North 4.6 mph - N/A   Clear
2:58 AM 39.2 °F 35.0 °F 37.8 °F 95% 30.49 in 10.0 mi North 5.8 mph - N/A   Clear
3:58 AM 38.8 °F 34.6 °F 38.1 °F 97% 30.48 in 10.0 mi North 5.8 mph - N/A   Clear
4:58 AM 39.4 °F 33.8 °F 38.5 °F 97% 30.48 in 10.0 mi NNW 8.1 mph - N/A   Clear
5:58 AM 40.5 °F 35.8 °F 39.2 °F 95% 30.49 in 10.0 mi North 6.9 mph - N/A   Mostly Cloudy
6:58 AM 40.6 °F 36.7 °F 39.4 °F 95% 30.51 in 10.0 mi North 5.8 mph - N/A   Clear
7:58 AM 43.9 °F 40.5 °F 40.8 °F 89% 30.51 in 10.0 mi North 5.8 mph - N/A   Clear
8:58 AM 46.4 °F 43.5 °F 42.3 °F 85% 30.53 in 10.0 mi NNE 5.8 mph - N/A   Mostly Cloudy
9:10 AM 46.4 °F 42.9 °F 42.8 °F 87% 30.51 in 10.0 mi NNE 6.9 mph - N/A   Scattered Clouds
9:36 AM 51.8 °F - 44.6 °F 76% 30.51 in 10.0 mi North 9.2 mph - N/A   Mostly Cloudy
9:38 AM 51.8 °F - 44.6 °F 76% 30.51 in 10.0 mi NNE 8.1 mph - N/A   Scattered Clouds
9:58 AM 53.6 °F - 44.6 °F 72% 30.51 in 10.0 mi NE 10.4 mph - N/A   Partly Cloudy
10:40 AM 55.4 °F - 46.4 °F 72% 30.51 in 10.0 mi NNE 6.9 mph - N/A   Mostly Cloudy
10:44 AM 57.2 °F - 46.4 °F 67% 30.50 in 10.0 mi North 10.4 mph - N/A   Scattered Clouds
10:58 AM 56.8 °F - 46.0 °F 67% 30.51 in 10.0 mi NE 8.1 mph - N/A   Scattered Clouds
11:12 AM 57.2 °F - 46.4 °F 67% 30.50 in 10.0 mi NNE 8.1 mph - N/A   Mostly Cloudy
11:50 AM 57.2 °F - 48.2 °F 72% 30.48 in 10.0 mi North 8.1 mph - N/A   Mostly Cloudy
11:58 AM 57.2 °F - 47.5 °F 70% 30.49 in 10.0 mi NNE 5.8 mph - N/A   Scattered Clouds
12:06 PM 57.2 °F - 48.2 °F 72% 30.47 in 10.0 mi North 8.1 mph - N/A   Mostly Cloudy
12:12 PM 57.2 °F - 48.2 °F 72% 30.47 in 10.0 mi NNE 8.1 mph - N/A   Scattered Clouds
12:38 PM 59.0 °F - 48.2 °F 67% 30.46 in 10.0 mi NNE 6.9 mph - N/A   Mostly Cloudy
12:58 PM 58.6 °F - 49.1 °F 71% 30.45 in 10.0 mi NE 8.1 mph - N/A   Mostly Cloudy
1:00 PM 59.0 °F - 50.0 °F 72% 30.44 in 10.0 mi NE 9.2 mph - N/A   Mostly Cloudy
1:58 PM 58.8 °F - 49.1 °F 70% 30.44 in 10.0 mi NNE 6.9 mph - N/A   Mostly Cloudy
2:58 PM 59.7 °F - 48.6 °F 67% 30.44 in 10.0 mi NE 9.2 mph - N/A   Scattered Clouds
3:58 PM 59.4 °F - 48.9 °F 68% 30.44 in 10.0 mi North 5.8 mph - N/A   Overcast
4:58 PM 58.5 °F - 50.4 °F 74% 30.44 in 10.0 mi North 4.6 mph - N/A   Overcast
5:58 PM 57.4 °F - 50.4 °F 77% 30.44 in 10.0 mi North 5.8 mph - N/A   Scattered Clouds
6:58 PM 56.7 °F - 50.2 °F 79% 30.45 in 10.0 mi NNE 3.5 mph - N/A   Overcast
7:58 PM 55.9 °F - 49.8 °F 80% 30.45 in 10.0 mi Variable 3.5 mph - N/A   Overcast
8:58 PM 55.2 °F - 50.2 °F 83% 30.44 in 10.0 mi NNE 4.6 mph - N/A   Mostly Cloudy
9:58 PM 55.2 °F - 50.7 °F 85% 30.44 in 10.0 mi North 3.5 mph - N/A   Overcast
10:58 PM 54.3 °F - 51.3 °F 89% 30.43 in 10.0 mi North 3.5 mph - N/A   Overcast
11:58 PM 53.4 °F - 51.4 °F 93% 30.42 in 10.0 mi North 1.2 mph - N/A   Partly Cloudy